| time (UTC) | temp F | wind direction | speed MPH | gust MPH | rain 1hr in | rain 24hr in | rain mn in | humidity % | barometer mb |
| 20260508121859 | 45 | 233 | 4.0 | 6.0 | 0.00 | 0.00 | 0.00 | 99 | 1002.2 |
| 20260508121357 | 45 | 229 | 6.0 | 10.0 | 0.00 | 0.00 | 0.00 | 99 | 1002.2 |
| 20260508120855 | 45 | 222 | 3.0 | 5.0 | 0.00 | 0.00 | 0.00 | 99 | 1002.1 |
| 20260508120352 | 45 | 226 | 3.0 | 5.0 | 0.00 | 0.00 | 0.00 | 99 | 1002.0 |
| 20260508115849 | 45 | 229 | 5.0 | 5.0 | 0.00 | 0.00 | 0.00 | 99 | 1002.1 |
| 20260508115347 | 45 | 204 | 4.0 | 6.0 | 0.00 | 0.00 | 0.00 | 99 | 1002.2 |
| 20260508114843 | 45 | 162 | 3.0 | 4.0 | 0.00 | 0.00 | 0.00 | 99 | 1001.9 |
| 20260508114340 | 45 | 223 | 4.0 | 4.0 | 0.00 | 0.00 | 0.00 | 99 | 1002.0 |
| 20260508113837 | 45 | 217 | 2.0 | 4.0 | 0.00 | 0.00 | 0.00 | 99 | 1002.0 |
| 20260508113335 | 45 | 235 | 3.0 | 5.0 | 0.00 | 0.00 | 0.00 | 99 | 1002.0 |
| 20260508112831 | 45 | 244 | 6.0 | 6.0 | 0.00 | 0.00 | 0.00 | 99 | 1002.0 |
| 20260508112329 | 45 | 89 | 0.0 | 2.0 | 0.00 | 0.00 | 0.00 | 99 | 1001.9 |
| 20260508111825 | 45 | 217 | 3.0 | 5.0 | 0.00 | 0.00 | 0.00 | 99 | 1002.0 |
| 20260508111322 | 45 | 214 | 0.0 | 2.0 | 0.00 | 0.00 | 0.00 | 99 | 1001.9 |
| 20260508110820 | 45 | 148 | 4.0 | 5.0 | 0.00 | 0.00 | 0.00 | 99 | 1002.0 |
| 20260508110317 | 45 | 146 | 3.0 | 4.0 | 0.00 | 0.00 | 0.00 | 99 | 1001.8 |
| 20260508105817 | 45 | 155 | 1.0 | 2.0 | 0.00 | 0.00 | 0.00 | 99 | 1001.9 |
| 20260508105314 | 45 | 132 | 3.0 | 5.0 | 0.00 | 0.00 | 0.00 | 99 | 1001.9 |
| 20260508104811 | 45 | 134 | 3.0 | 3.0 | 0.00 | 0.00 | 0.00 | 99 | 1002.1 |
| 20260508104307 | 45 | 140 | 1.0 | 4.0 | 0.00 | 0.00 | 0.00 | 99 | 1001.7 |
| 20260508103805 | 45 | 171 | 4.0 | 5.0 | 0.00 | 0.00 | 0.00 | 99 | 1002.0 |
| 20260508103301 | 45 | 178 | 5.0 | 7.0 | 0.00 | 0.00 | 0.00 | 99 | 1002.1 |
| 20260508102759 | 45 | 187 | 4.0 | 5.0 | 0.00 | 0.00 | 0.00 | 99 | 1001.9 |
| 20260508102257 | 44 | 154 | 5.0 | 6.0 | 0.00 | 0.00 | 0.00 | 99 | 1002.0 |
| 20260508101754 | 44 | 160 | 4.0 | 7.0 | 0.00 | 0.00 | 0.00 | 99 | 1002.0 |
| 20260508101251 | 44 | 164 | 7.0 | 8.0 | 0.00 | 0.00 | 0.00 | 99 | 1002.1 |
| 20260508100749 | 44 | 176 | 5.0 | 8.0 | 0.00 | 0.00 | 0.00 | 99 | 1002.3 |
| 20260508100247 | 44 | 187 | 5.0 | 7.0 | 0.00 | 0.00 | 0.00 | 99 | 1002.1 |
| 20260508095742 | 44 | 188 | 3.0 | 5.0 | 0.00 | 0.00 | 0.00 | 99 | 1001.9 |
| 20260508095240 | 44 | 197 | 4.0 | 5.0 | 0.00 | 0.00 | 0.00 | 99 | 1002.0 |
| 20260508094737 | 43 | 193 | 3.0 | 4.0 | 0.00 | 0.00 | 0.00 | 99 | 1001.7 |
| 20260508094234 | 43 | 169 | 3.0 | 4.0 | 0.00 | 0.00 | 0.00 | 99 | 1001.7 |
| 20260508093731 | 43 | 137 | 4.0 | 5.0 | 0.00 | 0.00 | 0.00 | 99 | 1001.8 |
| 20260508093229 | 43 | 141 | 2.0 | 3.0 | 0.00 | 0.00 | 0.00 | 99 | 1001.4 |
| 20260508092726 | 43 | 116 | 3.0 | 3.0 | 0.00 | 0.00 | 0.00 | 99 | 1001.6 |
| 20260508092224 | 43 | 126 | 1.0 | 3.0 | 0.00 | 0.00 | 0.00 | 99 | 1001.6 |
| 20260508091721 | 43 | 138 | 3.0 | 4.0 | 0.00 | 0.00 | 0.00 | 99 | 1001.3 |
| 20260508091218 | 43 | 132 | 3.0 | 4.0 | 0.00 | 0.00 | 0.00 | 99 | 1001.6 |
| 20260508090716 | 43 | 115 | 3.0 | 4.0 | 0.00 | 0.00 | 0.00 | 99 | 1001.4 |
| 20260508090213 | 43 | 120 | 2.0 | 4.0 | 0.00 | 0.00 | 0.00 | 99 | 1001.4 |
| 20260508085709 | 43 | 110 | 4.0 | 4.0 | 0.00 | 0.00 | 0.00 | 99 | 1001.5 |
| 20260508085207 | 43 | 121 | 3.0 | 4.0 | 0.00 | 0.00 | 0.00 | 99 | 1001.3 |
| 20260508084702 | 42 | 132 | 4.0 | 5.0 | 0.00 | 0.00 | 0.00 | 99 | 1001.6 |
| 20260508084200 | 42 | 155 | 4.0 | 6.0 | 0.00 | 0.00 | 0.00 | 99 | 1001.7 |
| 20260508083657 | 42 | 128 | 5.0 | 6.0 | 0.00 | 0.00 | 0.00 | 99 | 1001.3 |
| 20260508083155 | 42 | 134 | 4.0 | 5.0 | 0.00 | 0.00 | 0.00 | 99 | 1001.6 |
| 20260508082649 | 42 | 130 | 3.0 | 3.0 | 0.00 | 0.00 | 0.00 | 99 | 1001.4 |
| 20260508082147 | 43 | 119 | 3.0 | 3.0 | 0.00 | 0.00 | 0.00 | 99 | 1001.6 |
| 20260508081645 | 42 | 119 | 1.0 | 2.0 | 0.00 | 0.00 | 0.00 | 99 | 1001.7 |
| 20260508081141 | 42 | 92 | 3.0 | 5.0 | 0.00 | 0.00 | 0.00 | 99 | 1001.7 |
| 20260508080639 | 42 | 28 | 1.0 | 3.0 | 0.00 | 0.00 | 0.00 | 99 | 1001.7 |
| 20260508080137 | 43 | 24 | 2.0 | 3.0 | 0.00 | 0.00 | 0.00 | 99 | 1001.7 |
| 20260508075633 | 43 | 221 | 2.0 | 2.0 | 0.00 | 0.00 | 0.00 | 99 | 1001.7 |
| 20260508075130 | 42 | 116 | 1.0 | 1.0 | 0.00 | 0.00 | 0.00 | 99 | 1001.9 |
| 20260508074628 | 42 | 156 | 2.0 | 3.0 | 0.00 | 0.00 | 0.00 | 99 | 1001.9 |
| 20260508074124 | 41 | 133 | 3.0 | 3.0 | 0.00 | 0.00 | 0.00 | 99 | 1002.2 |
| 20260508073621 | 42 | 170 | 2.0 | 3.0 | 0.00 | 0.00 | 0.00 | 99 | 1001.8 |
| 20260508073119 | 42 | 193 | 3.0 | 3.0 | 0.00 | 0.00 | 0.00 | 99 | 1001.9 |
| 20260508072614 | 42 | 221 | 3.0 | 4.0 | 0.00 | 0.00 | 0.00 | 99 | 1001.6 |
| 20260508072112 | 42 | 219 | 3.0 | 3.0 | 0.00 | 0.00 | 0.00 | 99 | 1001.4 |
| 20260508071610 | 43 | 255 | 0.0 | 2.0 | 0.00 | 0.00 | 0.00 | 99 | 1001.3 |
| 20260508071108 | 43 | 284 | 2.0 | 3.0 | 0.00 | 0.00 | 0.00 | 99 | 1001.5 |
| 20260508070605 | 44 | 127 | 4.0 | 5.0 | 0.00 | 0.00 | 0.00 | 99 | 1001.3 |
| 20260508065600 | 43 | 121 | 5.0 | 5.0 | 0.00 | 0.00 | 0.00 | 99 | 1001.0 |
| 20260508065058 | 44 | 121 | 5.0 | 5.0 | 0.00 | 0.00 | 0.00 | 99 | 1000.9 |
| 20260508064555 | 44 | 118 | 5.0 | 6.0 | 0.00 | 0.00 | 0.00 | 99 | 1001.0 |
| 20260508064053 | 44 | 111 | 6.0 | 6.0 | 0.00 | 0.00 | 0.00 | 99 | 1001.4 |
| 20260508063550 | 44 | 128 | 4.0 | 4.0 | 0.00 | 0.00 | 0.00 | 99 | 1001.5 |
| 20260508063048 | 44 | 123 | 3.0 | 4.0 | 0.00 | 0.00 | 0.00 | 99 | 1001.6 |
| 20260508062545 | 45 | 148 | 2.0 | 3.0 | 0.00 | 0.00 | 0.00 | 99 | 1001.9 |
| 20260508062042 | 44 | 137 | 1.0 | 2.0 | 0.00 | 0.00 | 0.00 | 99 | 1001.7 |
| 20260508061540 | 44 | 130 | 3.0 | 3.0 | 0.00 | 0.00 | 0.00 | 99 | 1001.7 |
| 20260508061036 | 44 | 130 | 3.0 | 4.0 | 0.00 | 0.00 | 0.00 | 99 | 1001.8 |
| 20260508060533 | 45 | 131 | 3.0 | 4.0 | 0.00 | 0.00 | 0.00 | 99 | 1001.6 |
| 20260508060031 | 45 | 127 | 4.0 | 4.0 | 0.00 | 0.00 | 0.00 | 99 | 1001.7 |
| 20260508055526 | 45 | 131 | 3.0 | 3.0 | 0.00 | 0.00 | 0.00 | 99 | 1001.5 |
| 20260508055024 | 45 | 161 | 2.0 | 2.0 | 0.00 | 0.00 | 0.00 | 99 | 1001.6 |
| 20260508054520 | 45 | 174 | 1.0 | 1.0 | 0.00 | 0.00 | 0.00 | 99 | 1001.6 |
| 20260508054017 | 45 | 221 | 0.0 | 3.0 | 0.00 | 0.00 | 0.00 | 99 | 1001.5 |
| 20260508053514 | 45 | 213 | 2.0 | 3.0 | 0.00 | 0.00 | 0.00 | 99 | 1002.1 |
| 20260508053013 | 45 | 135 | 0.0 | 1.0 | 0.00 | 0.00 | 0.00 | 99 | 1001.7 |
| 20260508052509 | 45 | 160 | 2.0 | 3.0 | 0.00 | 0.00 | 0.00 | 99 | 1001.8 |
| 20260508052005 | 45 | 145 | 2.0 | 3.0 | 0.00 | 0.00 | 0.00 | 99 | 1002.0 |
| 20260508051502 | 46 | 165 | 1.0 | 1.0 | 0.00 | 0.00 | 0.00 | 99 | 1002.0 |
| 20260508050957 | 46 | 214 | 2.0 | 3.0 | 0.00 | 0.00 | 0.00 | 99 | 1001.9 |
| 20260508050454 | 46 | 238 | 2.0 | 3.0 | 0.00 | 0.00 | 0.00 | 99 | 1001.9 |
| 20260508045950 | 46 | 227 | 3.0 | 3.0 | 0.00 | 0.00 | 0.00 | 99 | 1001.9 |
| 20260508045448 | 46 | 203 | 2.0 | 2.0 | 0.00 | 0.00 | 0.00 | 99 | 1002.0 |
| 20260508044945 | 46 | 199 | 1.0 | 2.0 | 0.00 | 0.00 | 0.00 | 99 | 1002.1 |
| 20260508044442 | 46 | 186 | 1.0 | 2.0 | 0.00 | 0.00 | 0.00 | 99 | 1002.1 |
| 20260508043937 | 46 | 175 | 0.0 | 2.0 | 0.00 | 0.00 | 0.00 | 99 | 1002.1 |
| 20260508043435 | 46 | 202 | 2.0 | 3.0 | 0.00 | 0.00 | 0.00 | 99 | 1002.0 |
| 20260508042931 | 46 | 214 | 2.0 | 2.0 | 0.00 | 0.00 | 0.00 | 99 | 1001.9 |
| 20260508042429 | 47 | 200 | 0.0 | 2.0 | 0.00 | 0.00 | 0.00 | 99 | 1001.7 |
| 20260508041926 | 47 | 220 | 1.0 | 3.0 | 0.00 | 0.00 | 0.00 | 99 | 1001.6 |
| 20260508041422 | 47 | 214 | 2.0 | 3.0 | 0.00 | 0.00 | 0.00 | 99 | 1001.6 |
| 20260508040919 | 47 | 235 | 2.0 | 3.0 | 0.00 | 0.00 | 0.00 | 99 | 1001.7 |
| 20260508040416 | 47 | 230 | 2.0 | 3.0 | 0.00 | 0.00 | 0.00 | 99 | 1001.8 |
| 20260508035914 | 47 | 224 | 1.0 | 3.0 | 0.00 | 0.00 | 0.00 | 99 | 1001.9 |
| 20260508035411 | 47 | 223 | 3.0 | 3.0 | 0.00 | 0.00 | 0.00 | 99 | 1001.7 |
| 20260508034907 | 47 | 216 | 3.0 | 3.0 | 0.00 | 0.00 | 0.00 | 99 | 1001.9 |
| 20260508034405 | 47 | 215 | 3.0 | 3.0 | 0.00 | 0.00 | 0.00 | 99 | 1001.9 |
| 20260508033901 | 47 | 183 | 4.0 | 4.0 | 0.00 | 0.00 | 0.00 | 99 | 1001.9 |
| 20260508033400 | 47 | 198 | 3.0 | 3.0 | 0.00 | 0.00 | 0.00 | 99 | 1002.2 |
| 20260508032857 | 47 | 194 | 2.0 | 4.0 | 0.00 | 0.00 | 0.00 | 99 | 1002.1 |
| 20260508032354 | 47 | 183 | 2.0 | 3.0 | 0.00 | 0.00 | 0.00 | 99 | 1002.2 |
| 20260508031851 | 47 | 185 | 2.0 | 3.0 | 0.00 | 0.00 | 0.00 | 99 | 1002.1 |
| 20260508031348 | 47 | 196 | 4.0 | 4.0 | 0.00 | 0.00 | 0.00 | 99 | 1002.2 |
| 20260508030844 | 47 | 179 | 3.0 | 3.0 | 0.00 | 0.00 | 0.00 | 99 | 1002.2 |
| 20260508030341 | 47 | 190 | 3.0 | 4.0 | 0.00 | 0.00 | 0.00 | 99 | 1002.1 |
| 20260508025838 | 47 | 169 | 4.0 | 5.0 | 0.00 | 0.32 | 0.32 | 99 | 1001.9 |
| 20260508025335 | 48 | 183 | 3.0 | 4.0 | 0.00 | 0.32 | 0.32 | 99 | 1002.2 |
| 20260508024832 | 48 | 210 | 3.0 | 4.0 | 0.00 | 0.32 | 0.32 | 99 | 1002.4 |
| 20260508024328 | 48 | 232 | 2.0 | 3.0 | 0.00 | 0.32 | 0.32 | 99 | 1002.1 |
| 20260508023825 | 48 | 223 | 2.0 | 3.0 | 0.00 | 0.32 | 0.32 | 99 | 1002.3 |
| 20260508023322 | 48 | 227 | 3.0 | 3.0 | 0.00 | 0.32 | 0.32 | 99 | 1002.0 |
| 20260508022819 | 48 | 206 | 2.0 | 2.0 | 0.00 | 0.32 | 0.32 | 99 | 1002.1 |
| 20260508022314 | 48 | 156 | 2.0 | 2.0 | 0.00 | 0.32 | 0.32 | 99 | 1002.2 |
| 20260508021812 | 48 | 180 | 3.0 | 3.0 | 0.00 | 0.32 | 0.32 | 99 | 1002.4 |
| 20260508021307 | 48 | 154 | 2.0 | 3.0 | 0.00 | 0.32 | 0.32 | 99 | 1002.3 |
| 20260508020804 | 48 | 147 | 2.0 | 3.0 | 0.00 | 0.32 | 0.32 | 99 | 1001.9 |
| 20260508020302 | 48 | 149 | 2.0 | 3.0 | 0.00 | 0.32 | 0.32 | 99 | 1002.1 |
| 20260508015758 | 48 | 155 | 3.0 | 4.0 | 0.00 | 0.32 | 0.32 | 99 | 1002.1 |
| 20260508015256 | 49 | 162 | 3.0 | 3.0 | 0.00 | 0.32 | 0.32 | 99 | 1002.1 |
| 20260508014752 | 49 | 136 | 2.0 | 3.0 | 0.00 | 0.32 | 0.32 | 99 | 1002.0 |
| 20260508014249 | 49 | 118 | 1.0 | 2.0 | 0.00 | 0.32 | 0.32 | 99 | 1002.2 |
| 20260508013745 | 49 | 150 | 3.0 | 3.0 | 0.00 | 0.32 | 0.32 | 99 | 1002.2 |
| 20260508013242 | 49 | 152 | 1.0 | 2.0 | 0.00 | 0.32 | 0.32 | 99 | 1002.3 |
| 20260508012739 | 49 | 137 | 2.0 | 3.0 | 0.00 | 0.32 | 0.32 | 99 | 1002.2 |
| 20260508012236 | 49 | 149 | 2.0 | 2.0 | 0.00 | 0.32 | 0.32 | 99 | 1001.9 |
| 20260508011734 | 49 | 142 | 3.0 | 4.0 | 0.00 | 0.32 | 0.32 | 99 | 1001.8 |
| 20260508011231 | 49 | 107 | 4.0 | 5.0 | 0.00 | 0.32 | 0.32 | 99 | 1001.7 |
| 20260508010728 | 49 | 108 | 3.0 | 4.0 | 0.00 | 0.32 | 0.32 | 99 | 1001.8 |
| 20260508010226 | 49 | 83 | 3.0 | 4.0 | 0.00 | 0.32 | 0.32 | 99 | 1001.8 |
| 20260508005723 | 49 | 77 | 3.0 | 3.0 | 0.00 | 0.32 | 0.32 | 99 | 1001.9 |
| 20260508005220 | 49 | 71 | 2.0 | 3.0 | 0.00 | 0.32 | 0.32 | 99 | 1001.9 |
| 20260508004715 | 49 | 25 | 3.0 | 4.0 | 0.00 | 0.32 | 0.32 | 99 | 1001.7 |
| 20260508004212 | 49 | 11 | 4.0 | 5.0 | 0.00 | 0.32 | 0.32 | 99 | 1001.7 |
| 20260508003708 | 49 | 14 | 4.0 | 4.0 | 0.00 | 0.32 | 0.32 | 99 | 1001.9 |
| 20260508003206 | 49 | 341 | 2.0 | 3.0 | 0.00 | 0.32 | 0.32 | 99 | 1002.0 |
| 20260508002702 | 49 | 330 | 1.0 | 3.0 | 0.00 | 0.32 | 0.32 | 99 | 1002.1 |
| 20260508002200 | 49 | 319 | 4.0 | 4.0 | 0.00 | 0.32 | 0.32 | 99 | 1002.2 |
| 20260508001655 | 49 | 276 | 3.0 | 4.0 | 0.00 | 0.32 | 0.32 | 99 | 1002.1 |
| 20260508001151 | 49 | 302 | 2.0 | 3.0 | 0.00 | 0.32 | 0.32 | 99 | 1002.0 |
| 20260508000647 | 49 | 255 | 2.0 | 2.0 | 0.00 | 0.32 | 0.32 | 99 | 1001.6 |
| 20260508000145 | 49 | 246 | 2.0 | 3.0 | 0.00 | 0.32 | 0.32 | 99 | 1001.5 |
| 20260507235641 | 49 | 235 | 1.0 | 2.0 | 0.00 | 0.32 | 0.32 | 99 | 1001.7 |
| 20260507235139 | 49 | 247 | 1.0 | 3.0 | 0.00 | 0.32 | 0.32 | 99 | 1001.3 |
| 20260507234635 | 49 | 238 | 3.0 | 3.0 | 0.00 | 0.32 | 0.32 | 99 | 1001.5 |
| 20260507234132 | 49 | 232 | 3.0 | 4.0 | 0.00 | 0.32 | 0.32 | 99 | 1001.5 |
| 20260507233629 | 49 | 226 | 3.0 | 4.0 | 0.00 | 0.32 | 0.32 | 99 | 1001.7 |
| 20260507233127 | 49 | 234 | 3.0 | 3.0 | 0.00 | 0.32 | 0.32 | 99 | 1001.5 |
| 20260507232625 | 49 | 229 | 0.0 | 2.0 | 0.00 | 0.32 | 0.32 | 99 | 1001.6 |
| 20260507232121 | 50 | 253 | 1.0 | 3.0 | 0.00 | 0.32 | 0.32 | 99 | 1001.5 |
| 20260507231617 | 50 | 210 | 2.0 | 3.0 | 0.00 | 0.32 | 0.32 | 99 | 1001.6 |
| 20260507231114 | 50 | 224 | 0.0 | 3.0 | 0.00 | 0.32 | 0.32 | 99 | 1001.5 |
| 20260507230611 | 50 | 199 | 2.0 | 3.0 | 0.00 | 0.32 | 0.32 | 99 | 1001.6 |
| 20260507230108 | 50 | 206 | 3.0 | 3.0 | 0.00 | 0.32 | 0.32 | 99 | 1001.6 |
| 20260507225602 | 51 | 222 | 0.0 | 3.0 | 0.00 | 0.32 | 0.32 | 99 | 1001.7 |
| 20260507225059 | 51 | 225 | 2.0 | 3.0 | 0.00 | 0.32 | 0.32 | 99 | 1001.4 |
| 20260507224555 | 51 | 214 | 1.0 | 3.0 | 0.00 | 0.32 | 0.32 | 99 | 1001.4 |
| 20260507224052 | 51 | 225 | 1.0 | 2.0 | 0.00 | 0.32 | 0.32 | 99 | 1001.3 |
| 20260507223548 | 51 | 235 | 0.0 | 2.0 | 0.00 | 0.32 | 0.32 | 99 | 1001.3 |
| 20260507223045 | 50 | 242 | 2.0 | 4.0 | 0.00 | 0.32 | 0.32 | 99 | 1001.4 |
| 20260507222542 | 50 | 231 | 3.0 | 4.0 | 0.00 | 0.32 | 0.32 | 99 | 1001.3 |
| 20260507222038 | 50 | 184 | 2.0 | 3.0 | 0.00 | 0.32 | 0.32 | 99 | 1001.4 |
| 20260507221535 | 50 | 221 | 2.0 | 4.0 | 0.00 | 0.32 | 0.32 | 99 | 1001.6 |
| 20260507221032 | 49 | 223 | 3.0 | 3.0 | 0.00 | 0.32 | 0.32 | 99 | 1001.3 |
| 20260507220529 | 50 | 218 | 3.0 | 3.0 | 0.00 | 0.32 | 0.32 | 99 | 1001.3 |
| 20260507220026 | 50 | 236 | 3.0 | 3.0 | 0.00 | 0.32 | 0.32 | 99 | 1001.1 |
| 20260507215522 | 50 | 242 | 2.0 | 3.0 | 0.00 | 0.32 | 0.32 | 99 | 1001.1 |
| 20260507215020 | 49 | 240 | 3.0 | 3.0 | 0.00 | 0.32 | 0.32 | 99 | 1001.2 |
| 20260507214517 | 49 | 215 | 2.0 | 3.0 | 0.00 | 0.32 | 0.32 | 99 | 1001.2 |
| 20260507214013 | 49 | 207 | 3.0 | 4.0 | 0.00 | 0.32 | 0.32 | 99 | 1001.3 |
| 20260507213510 | 49 | 214 | 3.0 | 5.0 | 0.00 | 0.32 | 0.32 | 99 | 1001.3 |
| 20260507213007 | 49 | 211 | 3.0 | 5.0 | 0.00 | 0.32 | 0.32 | 99 | 1001.0 |
| 20260507212502 | 48 | 225 | 4.0 | 6.0 | 0.00 | 0.32 | 0.32 | 99 | 1001.4 |
| 20260507211959 | 48 | 223 | 5.0 | 7.0 | 0.00 | 0.32 | 0.32 | 99 | 1001.4 |
| 20260507211456 | 48 | 213 | 5.0 | 6.0 | 0.00 | 0.32 | 0.32 | 99 | 1001.3 |
| 20260507210952 | 48 | 225 | 6.0 | 7.0 | 0.00 | 0.32 | 0.32 | 99 | 1001.6 |
| 20260507210449 | 48 | 243 | 3.0 | 7.0 | 0.00 | 0.32 | 0.32 | 99 | 1001.6 |
| 20260507205946 | 48 | 227 | 6.0 | 7.0 | 0.00 | 0.32 | 0.32 | 99 | 1001.4 |
| 20260507205443 | 49 | 232 | 5.0 | 5.0 | 0.00 | 0.32 | 0.32 | 99 | 1001.2 |
| 20260507204939 | 49 | 231 | 5.0 | 7.0 | 0.00 | 0.32 | 0.32 | 99 | 1001.3 |
| 20260507204436 | 49 | 229 | 5.0 | 7.0 | 0.00 | 0.32 | 0.32 | 99 | 1001.0 |
| 20260507203934 | 49 | 221 | 4.0 | 6.0 | 0.00 | 0.32 | 0.32 | 99 | 1001.2 |
| 20260507203431 | 49 | 235 | 5.0 | 8.0 | 0.00 | 0.32 | 0.32 | 99 | 1001.2 |
| 20260507202928 | 49 | 236 | 6.0 | 6.0 | 0.00 | 0.32 | 0.32 | 99 | 1001.2 |
| 20260507202424 | 49 | 245 | 5.0 | 9.0 | 0.00 | 0.32 | 0.32 | 99 | 1001.1 |
| 20260507201920 | 49 | 243 | 6.0 | 9.0 | 0.00 | 0.32 | 0.32 | 99 | 1000.9 |
| 20260507201415 | 49 | 239 | 8.0 | 10.0 | 0.00 | 0.32 | 0.32 | 99 | 1000.8 |
| 20260507200912 | 49 | 245 | 9.0 | 10.0 | 0.00 | 0.32 | 0.32 | 99 | 1001.1 |
| 20260507200408 | 49 | 242 | 6.0 | 10.0 | 0.00 | 0.32 | 0.32 | 99 | 1001.1 |
| 20260507195904 | 50 | 237 | 9.0 | 10.0 | 0.00 | 0.32 | 0.32 | 99 | 1000.9 |
| 20260507195402 | 50 | 243 | 6.0 | 8.0 | 0.00 | 0.32 | 0.32 | 99 | 1000.9 |
| 20260507194859 | 50 | 247 | 8.0 | 8.0 | 0.00 | 0.32 | 0.32 | 99 | 1000.8 |
| 20260507194355 | 50 | 240 | 8.0 | 11.0 | 0.00 | 0.32 | 0.32 | 99 | 1001.1 |
| 20260507193851 | 50 | 237 | 7.0 | 9.0 | 0.00 | 0.32 | 0.32 | 99 | 1000.8 |
| 20260507193349 | 51 | 229 | 7.0 | 7.0 | 0.00 | 0.32 | 0.32 | 99 | 1000.9 |
| 20260507192845 | 51 | 240 | 6.0 | 7.0 | 0.00 | 0.32 | 0.32 | 99 | 1000.8 |
| 20260507192341 | 51 | 228 | 6.0 | 7.0 | 0.00 | 0.32 | 0.32 | 99 | 1000.7 |
| 20260507191838 | 51 | 259 | 4.0 | 6.0 | 0.00 | 0.32 | 0.32 | 99 | 1000.7 |
| 20260507191334 | 51 | 245 | 6.0 | 8.0 | 0.00 | 0.32 | 0.32 | 99 | 1001.0 |
| 20260507190831 | 51 | 267 | 7.0 | 11.0 | 0.00 | 0.32 | 0.32 | 99 | 1000.8 |
| 20260507190329 | 51 | 244 | 6.0 | 11.0 | 0.00 | 0.32 | 0.32 | 98 | 1000.8 |
| 20260507185828 | 52 | 244 | 9.0 | 14.0 | 0.00 | 0.32 | 0.32 | 98 | 1000.8 |
| 20260507185324 | 54 | 216 | 8.0 | 13.0 | 0.00 | 0.32 | 0.32 | 99 | 1000.5 |
| 20260507184822 | 54 | 214 | 5.0 | 10.0 | 0.00 | 0.32 | 0.32 | 99 | 1000.4 |
| 20260507184320 | 54 | 186 | 9.0 | 13.0 | 0.00 | 0.32 | 0.32 | 99 | 1000.7 |
| 20260507183816 | 54 | 203 | 10.0 | 15.0 | 0.00 | 0.32 | 0.32 | 99 | 1000.7 |
| 20260507183313 | 54 | 170 | 9.0 | 16.0 | 0.00 | 0.32 | 0.32 | 99 | 1000.6 |
| 20260507182811 | 54 | 183 | 14.0 | 15.0 | 0.00 | 0.32 | 0.32 | 99 | 1000.1 |
| 20260507182307 | 53 | 175 | 14.0 | 16.0 | 0.00 | 0.32 | 0.32 | 99 | 1000.3 |
| 20260507181802 | 53 | 171 | 10.0 | 16.0 | 0.00 | 0.32 | 0.32 | 99 | 999.7 |
| 20260507181259 | 53 | 147 | 9.0 | 16.0 | 0.00 | 0.32 | 0.32 | 99 | 999.5 |
| 20260507180755 | 53 | 166 | 13.0 | 18.0 | 0.00 | 0.32 | 0.32 | 99 | 1000.7 |
| 20260507180253 | 53 | 170 | 14.0 | 15.0 | 0.05 | 0.32 | 0.32 | 99 | 1000.4 |
| 20260507175748 | 53 | 179 | 11.0 | 16.0 | 0.05 | 0.32 | 0.32 | 99 | 1001.1 |
| 20260507175245 | 53 | 196 | 10.0 | 16.0 | 0.00 | 0.31 | 0.31 | 99 | 1001.7 |
| 20260507174742 | 53 | 174 | 17.0 | 22.0 | 0.00 | 0.31 | 0.31 | 99 | 1001.3 |
| 20260507174240 | 53 | 175 | 12.0 | 19.0 | 0.02 | 0.31 | 0.31 | 99 | 1000.8 |
| 20260507173738 | 53 | 175 | 16.0 | 22.0 | 0.02 | 0.31 | 0.31 | 99 | 1000.8 |
| 20260507173234 | 53 | 165 | 12.0 | 18.0 | 0.02 | 0.31 | 0.31 | 99 | 1000.2 |
| 20260507172731 | 53 | 163 | 9.0 | 18.0 | 0.05 | 0.31 | 0.31 | 99 | 1000.0 |
| 20260507172228 | 53 | 151 | 13.0 | 18.0 | 0.07 | 0.30 | 0.30 | 99 | 1000.5 |
| 20260507171728 | 53 | 171 | 13.0 | 16.0 | 0.05 | 0.29 | 0.29 | 99 | 1001.0 |
| 20260507171226 | 53 | 172 | 10.0 | 20.0 | 0.05 | 0.29 | 0.29 | 99 | 1000.8 |
| 20260507170722 | 53 | 170 | 13.0 | 16.0 | 0.02 | 0.28 | 0.28 | 99 | 1000.9 |
| 20260507170219 | 53 | 184 | 13.0 | 18.0 | 0.00 | 0.28 | 0.28 | 99 | 1001.5 |
| 20260507165715 | 54 | 168 | 14.0 | 18.0 | 0.02 | 0.28 | 0.28 | 98 | 1001.3 |
| 20260507165211 | 54 | 178 | 14.0 | 18.0 | 0.02 | 0.28 | 0.28 | 98 | 1001.7 |
| 20260507164707 | 54 | 173 | 15.0 | 20.0 | 0.00 | 0.28 | 0.28 | 98 | 1001.5 |
| 20260507164205 | 54 | 189 | 16.0 | 18.0 | 0.00 | 0.28 | 0.28 | 98 | 1001.1 |
| 20260507163701 | 54 | 171 | 10.0 | 17.0 | 0.07 | 0.28 | 0.28 | 98 | 1000.9 |
| 20260507163159 | 54 | 176 | 14.0 | 17.0 | 0.14 | 0.27 | 0.27 | 98 | 1001.2 |
| 20260507162655 | 54 | 170 | 18.0 | 18.0 | 0.17 | 0.26 | 0.26 | 98 | 1001.3 |
| 20260507162151 | 54 | 196 | 8.0 | 14.0 | 0.14 | 0.25 | 0.25 | 98 | 1001.9 |
| 20260507161648 | 54 | 174 | 10.0 | 19.0 | 0.14 | 0.24 | 0.24 | 98 | 1002.0 |
| 20260507161144 | 54 | 166 | 13.0 | 16.0 | 0.12 | 0.22 | 0.22 | 98 | 1001.9 |
| 20260507160641 | 54 | 166 | 13.0 | 16.0 | 0.07 | 0.21 | 0.21 | 98 | 1002.1 |
| 20260507160138 | 54 | 166 | 15.0 | 17.0 | 0.05 | 0.20 | 0.20 | 98 | 1001.6 |
| 20260507155633 | 54 | 193 | 7.0 | 15.0 | 0.05 | 0.20 | 0.20 | 98 | 1001.8 |
| 20260507155130 | 54 | 190 | 12.0 | 16.0 | 0.05 | 0.19 | 0.19 | 98 | 1001.8 |
| 20260507154626 | 54 | 186 | 11.0 | 16.0 | 0.05 | 0.19 | 0.19 | 98 | 1001.9 |
| 20260507154124 | 54 | 192 | 12.0 | 17.0 | 0.05 | 0.18 | 0.18 | 98 | 1002.4 |
| 20260507153620 | 54 | 196 | 9.0 | 14.0 | 0.07 | 0.18 | 0.18 | 98 | 1002.5 |
| 20260507153117 | 54 | 194 | 11.0 | 20.0 | 0.12 | 0.18 | 0.18 | 97 | 1003.0 |
| 20260507152613 | 53 | 198 | 9.0 | 21.0 | 0.14 | 0.17 | 0.17 | 97 | 1003.3 |
| 20260507152109 | 53 | 221 | 9.0 | 17.0 | 0.21 | 0.16 | 0.16 | 97 | 1003.1 |
| 20260507151605 | 53 | 209 | 12.0 | 17.0 | 0.24 | 0.14 | 0.14 | 97 | 1003.4 |
| 20260507151103 | 53 | 207 | 7.0 | 17.0 | 0.28 | 0.12 | 0.12 | 96 | 1003.0 |
| 20260507150600 | 53 | 194 | 7.0 | 19.0 | 0.35 | 0.10 | 0.10 | 95 | 1003.5 |
| 20260507150056 | 54 | 216 | 12.0 | 17.0 | 0.24 | 0.06 | 0.06 | 94 | 1003.4 |
| 20260507145551 | 54 | 223 | 11.0 | 16.0 | 0.14 | 0.03 | 0.03 | 93 | 1003.0 |
| 20260507145050 | 55 | 212 | 9.0 | 17.0 | 0.07 | 0.02 | 0.02 | 91 | 1002.8 |
| 20260507144546 | 56 | 202 | 14.0 | 16.0 | 0.00 | 0.01 | 0.01 | 90 | 1002.7 |
| 20260507144044 | 57 | 208 | 7.0 | 16.0 | 0.00 | 0.01 | 0.01 | 89 | 1002.9 |
| 20260507143540 | 57 | 213 | 15.0 | 20.0 | 0.00 | 0.01 | 0.01 | 89 | 1002.8 |
| 20260507143038 | 57 | 201 | 20.0 | 20.0 | 0.00 | 0.01 | 0.01 | 89 | 1003.1 |
| 20260507142533 | 57 | 201 | 13.0 | 15.0 | 0.00 | 0.01 | 0.01 | 89 | 1002.7 |
| 20260507142030 | 57 | 196 | 10.0 | 17.0 | 0.00 | 0.01 | 0.01 | 89 | 1002.9 |
| 20260507141526 | 57 | 203 | 10.0 | 15.0 | 0.00 | 0.01 | 0.01 | 88 | 1002.9 |
| 20260507141023 | 57 | 195 | 11.0 | 19.0 | 0.00 | 0.01 | 0.01 | 88 | 1002.7 |
| 20260507140520 | 58 | 177 | 18.0 | 24.0 | 0.00 | 0.01 | 0.01 | 88 | 1002.4 |
| 20260507140018 | 57 | 181 | 14.0 | 22.0 | 0.00 | 0.01 | 0.01 | 89 | 1002.3 |
| 20260507135514 | 57 | 168 | 23.0 | 24.0 | 0.00 | 0.01 | 0.01 | 89 | 1002.4 |
| 20260507135011 | 57 | 183 | 15.0 | 24.0 | 0.00 | 0.01 | 0.01 | 89 | 1002.3 |
| 20260507134508 | 57 | 174 | 17.0 | 23.0 | 0.00 | 0.01 | 0.01 | 89 | 1002.7 |
| 20260507134003 | 57 | 175 | 11.0 | 25.0 | 0.00 | 0.01 | 0.01 | 89 | 1002.5 |
| 20260507133459 | 57 | 177 | 14.0 | 26.0 | 0.00 | 0.01 | 0.01 | 89 | 1002.8 |
| 20260507132958 | 57 | 175 | 18.0 | 29.0 | 0.00 | 0.01 | 0.01 | 89 | 1003.0 |
| 20260507132454 | 57 | 183 | 24.0 | 30.0 | 0.00 | 0.01 | 0.01 | 89 | 1002.9 |
| 20260507131951 | 57 | 173 | 23.0 | 31.0 | 0.00 | 0.01 | 0.01 | 89 | 1003.1 |
| 20260507131448 | 57 | 183 | 19.0 | 30.0 | 0.00 | 0.01 | 0.01 | 90 | 1002.8 |
| 20260507130944 | 57 | 176 | 22.0 | 27.0 | 0.00 | 0.01 | 0.01 | 90 | 1003.0 |
| 20260507130441 | 56 | 179 | 18.0 | 25.0 | 0.00 | 0.01 | 0.01 | 89 | 1003.3 |
| 20260507125940 | 56 | 184 | 19.0 | 28.0 | 0.00 | 0.01 | 0.01 | 89 | 1003.4 |
| 20260507125438 | 57 | 180 | 22.0 | 28.0 | 0.00 | 0.01 | 0.01 | 89 | 1003.0 |
| 20260507124935 | 57 | 187 | 19.0 | 27.0 | 0.00 | 0.01 | 0.01 | 89 | 1003.4 |
| 20260507124431 | 57 | 195 | 22.0 | 32.0 | 0.00 | 0.01 | 0.01 | 89 | 1003.4 |
| 20260507123930 | 56 | 181 | 20.0 | 29.0 | 0.00 | 0.01 | 0.01 | 90 | 1003.5 |
| 20260507123427 | 56 | 181 | 23.0 | 26.0 | 0.00 | 0.01 | 0.01 | 89 | 1003.6 |
| 20260507122923 | 56 | 176 | 17.0 | 30.0 | 0.00 | 0.01 | 0.01 | 89 | 1003.3 |
| 20260507122418 | 56 | 166 | 22.0 | 27.0 | 0.00 | 0.01 | 0.01 | 90 | 1003.2 |